Weather History for White Rock, BC

Change the Weather History Date:

Friday, February 1, 2013

  Actual Average Record
Temperature  
Mean Temperature 46 °F -  
Max Temperature 50 °F - - ()
Min Temperature 41 °F - - ()
Degree Days  
Heating Degree Days 20    
Moisture  
Dew Point 42 °F    
Average Humidity 88    
Maximum Humidity 93    
Minimum Humidity 65    
Precipitation  
Precipitation 0.00 in - - ()
Sea Level Pressure  
Sea Level Pressure 30.43 in    
Wind  
Wind Speed 1 mph ()    
Max Wind Speed 4 mph    
Max Gust Speed -    
T = Trace of Precipitation, MM = Missing Value Source: Averaged Metar Reports

Daily Weather History Graph

Daily Weather History Graph

Search for Another Location

Airport:

Trip Planner

Search our weather history database for the weather conditions in past years. The results will help you decide how hot, cold, wet, or windy it might be!

Date:

Astronomy

Feb. 01, 2013 Rise Set
Actual Time 7:41 AM PST 5:09 PM PST
Civil Twilight 7:07 AM PST 5:43 PM PST
Nautical Twilight 6:29 AM PST 6:21 PM PST
Astronomical Twilight 5:52 AM PST 6:58 PM PST
Moon No Moon Rise 9:42 AM PST (2/1)
Length of Visible Light 10h 35m
Length of Day
9h 27m
Waning Gibbous, 69% of the Moon is Illuminated
Feb 1
Waning Gibbous
Feb 3
Last Quarter
Feb 9
New
Feb 17
First Quarter
Feb 25
Full

Hourly Weather History & Observations

Time (PST) Temp. Windchill Dew Point Humidity Pressure Visibility Wind Dir Wind Speed Gust Speed Precip Events Conditions
12:00 AM 46.6 °F - 44.2 °F 92% 30.35 in - SW 1.2 mph - N/A   Unknown
1:00 AM 46.0 °F - 43.9 °F 92% 30.36 in - ENE 1.2 mph - N/A   Unknown
2:00 AM 46.0 °F - 43.9 °F 92% 30.38 in - WSW 1.2 mph - N/A   Unknown
3:00 AM 46.2 °F - 44.2 °F 93% 30.38 in - West 2.3 mph - N/A   Unknown
4:00 AM 45 °F - 43 °F 90% 30.40 in - West 1.2 mph - -  
4:00 AM 45.1 °F - 43.0 °F 92% 30.40 in - West 1.2 mph - N/A   Unknown
5:00 AM 45.1 °F - 43.0 °F 92% 30.40 in - Calm Calm - N/A   Unknown
6:00 AM 45.0 °F - 42.6 °F 91% 30.40 in - ENE 1.2 mph - N/A   Unknown
7:00 AM 45.0 °F - 42.8 °F 92% 30.42 in - Calm Calm - N/A   Unknown
8:00 AM 45.0 °F - 42.8 °F 92% 30.42 in - SSE 1.2 mph - N/A   Unknown
9:00 AM 45.1 °F - 43.0 °F 92% 30.44 in - Calm Calm - N/A   Unknown
10:00 AM 46 °F - 44 °F 88% 30.45 in - SW 1.2 mph - -  
10:00 AM 45.7 °F - 43.5 °F 92% 30.45 in - SW 1.2 mph - N/A   Unknown
11:00 AM 45.7 °F - 43.2 °F 91% 30.46 in - SSW 2.3 mph - N/A   Unknown
12:00 PM 48.2 °F - 45.1 °F 89% 30.46 in - ENE 2.3 mph - N/A   Unknown
1:00 PM 48.9 °F - 43.3 °F 81% 30.45 in - NNE 3.5 mph - N/A   Unknown
2:00 PM 49.5 °F - 44.1 °F 82% 30.44 in - NNE 1.2 mph - N/A   Unknown
3:00 PM 49.3 °F - 42.6 °F 78% 30.44 in - North 2.3 mph - N/A   Unknown
4:00 PM 50 °F - 42 °F 65% 30.43 in - North 2.3 mph - -  
4:00 PM 49.8 °F - 41.9 °F 74% 30.43 in - North 2.3 mph - N/A   Unknown
5:00 PM 47.7 °F - 42.3 °F 82% 30.43 in - North 1.2 mph - N/A   Unknown
6:00 PM 45.3 °F - 42.1 °F 88% 30.44 in - NNW 1.2 mph - N/A   Unknown
7:00 PM 45.5 °F 44.2 °F 41.7 °F 87% 30.45 in - NNW 3.5 mph - N/A   Unknown
8:00 PM 44.1 °F - 40.6 °F 88% 30.45 in - North 1.2 mph - N/A   Unknown
9:00 PM 42.6 °F - 39.7 °F 90% 30.44 in - NNE 2.3 mph - N/A   Unknown
10:00 PM 42 °F - 39 °F 87% 30.44 in - North 2.3 mph - -  
10:00 PM 41.7 °F - 39.4 °F 91% 30.44 in - North 2.3 mph - N/A   Unknown
11:00 PM 41.0 °F - 39.0 °F 93% 30.45 in - North 2.3 mph - N/A   Unknown